Tracking 27122 objects as of 24-Mar-2023
HD Live streaming from Space Station
objects crossing your sky now

STARLINK-1600

Track STARLINK-1600 now!
10-day predictions
STARLINK-1600 is classified as:


NORAD ID: 46161
Int'l Code: 2020-057AW
Perigee: 553.2 km
Apogee: 555.2 km
Inclination: 53.1 °
Period: 95.6 minutes
Semi major axis: 6925 km
RCS: Unknown
Launch date: August 18, 2020
Source: United States (US)
Launch site: AIR FORCE EASTERN TEST RANGE (AFETR)
Your satellite tracking list
Your tracking list is empty




NASA's NSSDC Master Catalog

Two Line Element Set (TLE):
1 46161U 20057AW  23083.27709232  .00106881  00000-0  70757-2 0  9992
2 46161  53.0523 111.2666 0001466  68.2818 291.8327 15.06455716144013
Source of the keplerian elements: AFSPC